Date,Time,Count Counter A,Count Counter B
2022-02-01,00:00:00,7,1
2022-02-01,01:00:00,1,0
2022-02-01,02:00:00,1,0
2022-02-01,03:00:00,0,1
2022-02-01,04:00:00,0,1
2022-02-01,05:00:00,1,5
2022-02-01,06:00:00,6,12
2022-02-01,07:00:00,79,33
2022-02-01,08:00:00,20,57
2022-02-01,09:00:00,34,46
2022-02-01,10:00:00,35,46
2022-02-01,11:00:00,43,48
2022-02-01,12:00:00,53,46
2022-02-01,13:00:00,38,66
2022-02-01,14:00:00,64,95
2022-02-01,15:00:00,64,35
2022-02-01,16:00:00,56,22
2022-02-01,17:00:00,48,31
2022-02-01,18:00:00,29,21
2022-02-01,19:00:00,14,14
2022-02-01,20:00:00,17,12
2022-02-01,21:00:00,6,5
2022-02-01,22:00:00,4,2
2022-02-01,23:00:00,3,2
2022-02-02,00:00:00,2,1
2022-02-02,01:00:00,1,0
2022-02-02,02:00:00,1,0
2022-02-02,03:00:00,0,0
2022-02-02,04:00:00,1,0
2022-02-02,05:00:00,3,12
2022-02-02,06:00:00,9,14
2022-02-02,07:00:00,94,28
2022-02-02,08:00:00,25,55
2022-02-02,09:00:00,43,54
2022-02-02,10:00:00,34,37
2022-02-02,11:00:00,49,34
2022-02-02,12:00:00,45,52
2022-02-02,13:00:00,40,56
2022-02-02,14:00:00,42,79
2022-02-02,15:00:00,58,38
2022-02-02,16:00:00,48,27
2022-02-02,17:00:00,46,32
2022-02-02,18:00:00,41,16
2022-02-02,19:00:00,25,12
2022-02-02,20:00:00,11,20
2022-02-02,21:00:00,14,10
2022-02-02,22:00:00,3,2
2022-02-02,23:00:00,4,2
2022-02-03,00:00:00,7,0
2022-02-03,01:00:00,1,1
2022-02-03,02:00:00,2,0
2022-02-03,03:00:00,0,1
2022-02-03,04:00:00,0,1
2022-02-03,05:00:00,4,7
2022-02-03,06:00:00,7,9
2022-02-03,07:00:00,89,40
2022-02-03,08:00:00,23,55
2022-02-03,09:00:00,24,41
2022-02-03,10:00:00,43,54
2022-02-03,11:00:00,40,41
2022-02-03,12:00:00,68,69
2022-02-03,13:00:00,33,29
2022-02-03,14:00:00,41,83
2022-02-03,15:00:00,62,47
2022-02-03,16:00:00,54,29
2022-02-03,17:00:00,36,25
2022-02-03,18:00:00,27,19
2022-02-03,19:00:00,19,17
2022-02-03,20:00:00,14,8
2022-02-03,21:00:00,6,8
2022-02-03,22:00:00,1,5
2022-02-03,23:00:00,5,4
2022-02-04,00:00:00,3,2
2022-02-04,01:00:00,3,0
2022-02-04,02:00:00,7,1
2022-02-04,03:00:00,2,1
2022-02-04,04:00:00,1,2
2022-02-04,05:00:00,2,8
2022-02-04,06:00:00,10,15
2022-02-04,07:00:00,84,27
2022-02-04,08:00:00,22,43
2022-02-04,09:00:00,11,24
2022-02-04,10:00:00,25,18
2022-02-04,11:00:00,44,49
2022-02-04,12:00:00,43,45
2022-02-04,13:00:00,46,51
2022-02-04,14:00:00,43,97
2022-02-04,15:00:00,58,41
2022-02-04,16:00:00,47,21
2022-02-04,17:00:00,32,28
2022-02-04,18:00:00,23,20
2022-02-04,19:00:00,3,16
2022-02-04,20:00:00,9,7
2022-02-04,21:00:00,15,6
2022-02-04,22:00:00,17,3
2022-02-04,23:00:00,6,4
2022-02-05,00:00:00,8,0
2022-02-05,01:00:00,4,2
2022-02-05,02:00:00,6,0
2022-02-05,03:00:00,1,2
2022-02-05,04:00:00,4,1
2022-02-05,05:00:00,3,4
2022-02-05,06:00:00,3,4
2022-02-05,07:00:00,11,12
2022-02-05,08:00:00,32,30
2022-02-05,09:00:00,54,52
2022-02-05,10:00:00,35,62
2022-02-05,11:00:00,38,54
2022-02-05,12:00:00,56,67
2022-02-05,13:00:00,46,47
2022-02-05,14:00:00,40,48
2022-02-05,15:00:00,14,7
2022-02-05,16:00:00,42,26
2022-02-05,17:00:00,12,27
2022-02-05,18:00:00,28,18
2022-02-05,19:00:00,10,17
2022-02-05,20:00:00,12,14
2022-02-05,21:00:00,12,8
2022-02-05,22:00:00,10,6
2022-02-05,23:00:00,6,2
2022-02-06,00:00:00,7,1
2022-02-06,01:00:00,6,1
2022-02-06,02:00:00,5,0
2022-02-06,03:00:00,0,2
2022-02-06,04:00:00,1,1
2022-02-06,05:00:00,0,2
2022-02-06,06:00:00,2,3
2022-02-06,07:00:00,7,12
2022-02-06,08:00:00,21,16
2022-02-06,09:00:00,19,23
2022-02-06,10:00:00,35,27
2022-02-06,11:00:00,29,40
2022-02-06,12:00:00,38,32
2022-02-06,13:00:00,20,43
2022-02-06,14:00:00,45,35
2022-02-06,15:00:00,27,34
2022-02-06,16:00:00,23,19
2022-02-06,17:00:00,17,19
2022-02-06,18:00:00,9,11
2022-02-06,19:00:00,7,3
2022-02-06,20:00:00,3,2
2022-02-06,21:00:00,3,9
2022-02-06,22:00:00,4,0
2022-02-06,23:00:00,3,1
2022-02-07,00:00:00,0,0
2022-02-07,01:00:00,0,0
2022-02-07,02:00:00,0,2
2022-02-07,03:00:00,0,1
2022-02-07,04:00:00,1,3
2022-02-07,05:00:00,6,12
2022-02-07,06:00:00,12,13
2022-02-07,07:00:00,85,23
2022-02-07,08:00:00,20,61
2022-02-07,09:00:00,32,56
2022-02-07,10:00:00,42,41
2022-02-07,11:00:00,53,54
2022-02-07,12:00:00,64,77
2022-02-07,13:00:00,43,52
2022-02-07,14:00:00,33,94
2022-02-07,15:00:00,59,32
2022-02-07,16:00:00,48,24
2022-02-07,17:00:00,41,19
2022-02-07,18:00:00,28,15
2022-02-07,19:00:00,19,15
2022-02-07,20:00:00,14,10
2022-02-07,21:00:00,5,7
2022-02-07,22:00:00,6,7
2022-02-07,23:00:00,3,0
2022-02-08,00:00:00,1,0
2022-02-08,01:00:00,2,0
2022-02-08,02:00:00,0,0
2022-02-08,03:00:00,0,1
2022-02-08,04:00:00,1,3
2022-02-08,05:00:00,0,9
2022-02-08,06:00:00,7,16
2022-02-08,07:00:00,97,29
2022-02-08,08:00:00,25,60
2022-02-08,09:00:00,28,35
2022-02-08,10:00:00,34,52
2022-02-08,11:00:00,48,36
2022-02-08,12:00:00,44,50
2022-02-08,13:00:00,38,38
2022-02-08,14:00:00,49,92
2022-02-08,15:00:00,53,39
2022-02-08,16:00:00,52,24
2022-02-08,17:00:00,37,31
2022-02-08,18:00:00,19,28
2022-02-08,19:00:00,13,10
2022-02-08,20:00:00,16,8
2022-02-08,21:00:00,18,9
2022-02-08,22:00:00,6,1
2022-02-08,23:00:00,3,4
2022-02-09,00:00:00,2,1
2022-02-09,01:00:00,0,0
2022-02-09,02:00:00,1,0
2022-02-09,03:00:00,0,1
2022-02-09,04:00:00,0,0
2022-02-09,05:00:00,2,9
2022-02-09,06:00:00,11,16
2022-02-09,07:00:00,79,30
2022-02-09,08:00:00,34,72
2022-02-09,09:00:00,28,45
2022-02-09,10:00:00,54,51
2022-02-09,11:00:00,58,53
2022-02-09,12:00:00,53,48
2022-02-09,13:00:00,37,77
2022-02-09,14:00:00,43,92
2022-02-09,15:00:00,55,49
2022-02-09,16:00:00,53,28
2022-02-09,17:00:00,43,33
2022-02-09,18:00:00,33,23
2022-02-09,19:00:00,24,24
2022-02-09,20:00:00,21,11
2022-02-09,21:00:00,11,9
2022-02-09,22:00:00,2,6
2022-02-09,23:00:00,9,2
2022-02-10,00:00:00,2,2
2022-02-10,01:00:00,0,0
2022-02-10,02:00:00,1,0
2022-02-10,03:00:00,0,1
2022-02-10,04:00:00,1,1
2022-02-10,05:00:00,3,7
2022-02-10,06:00:00,10,22
2022-02-10,07:00:00,80,39
2022-02-10,08:00:00,25,56
2022-02-10,09:00:00,23,43
2022-02-10,10:00:00,55,57
2022-02-10,11:00:00,32,40
2022-02-10,12:00:00,61,48
2022-02-10,13:00:00,42,31
2022-02-10,14:00:00,44,89
2022-02-10,15:00:00,54,43
2022-02-10,16:00:00,48,35
2022-02-10,17:00:00,49,34
2022-02-10,18:00:00,16,24
2022-02-10,19:00:00,22,16
2022-02-10,20:00:00,16,9
2022-02-10,21:00:00,5,13
2022-02-10,22:00:00,2,10
2022-02-10,23:00:00,3,0
2022-02-11,00:00:00,5,0
2022-02-11,01:00:00,0,0
2022-02-11,02:00:00,6,0
2022-02-11,03:00:00,4,3
2022-02-11,04:00:00,2,2
2022-02-11,05:00:00,8,9
2022-02-11,06:00:00,10,12
2022-02-11,07:00:00,92,31
2022-02-11,08:00:00,18,51
2022-02-11,09:00:00,29,36
2022-02-11,10:00:00,45,50
2022-02-11,11:00:00,36,35
2022-02-11,12:00:00,42,38
2022-02-11,13:00:00,50,40
2022-02-11,14:00:00,39,123
2022-02-11,15:00:00,61,21
2022-02-11,16:00:00,37,25
2022-02-11,17:00:00,29,27
2022-02-11,18:00:00,25,18
2022-02-11,19:00:00,10,15
2022-02-11,20:00:00,11,8
2022-02-11,21:00:00,14,9
2022-02-11,22:00:00,10,5
2022-02-11,23:00:00,7,1
2022-02-12,00:00:00,1,0
2022-02-12,01:00:00,4,0
2022-02-12,02:00:00,2,0
2022-02-12,03:00:00,2,3
2022-02-12,04:00:00,2,1
2022-02-12,05:00:00,5,3
2022-02-12,06:00:00,5,8
2022-02-12,07:00:00,14,21
2022-02-12,08:00:00,29,29
2022-02-12,09:00:00,32,51
2022-02-12,10:00:00,77,55
2022-02-12,11:00:00,7,7
2022-02-12,12:00:00,44,45
2022-02-12,13:00:00,48,55
2022-02-12,14:00:00,43,49
2022-02-12,15:00:00,35,66
2022-02-12,16:00:00,29,28
2022-02-12,17:00:00,43,30
2022-02-12,18:00:00,17,16
2022-02-12,19:00:00,11,4
2022-02-12,20:00:00,12,11
2022-02-12,21:00:00,11,11
2022-02-12,22:00:00,5,5
2022-02-12,23:00:00,9,5
2022-02-13,00:00:00,9,0
2022-02-13,01:00:00,2,0
2022-02-13,02:00:00,2,0
2022-02-13,03:00:00,1,0
2022-02-13,04:00:00,1,3
2022-02-13,05:00:00,1,4
2022-02-13,06:00:00,6,5
2022-02-13,07:00:00,12,10
2022-02-13,08:00:00,22,28
2022-02-13,09:00:00,35,30
2022-02-13,10:00:00,30,31
2022-02-13,11:00:00,33,57
2022-02-13,12:00:00,18,21
2022-02-13,13:00:00,16,9
2022-02-13,14:00:00,24,15
2022-02-13,15:00:00,8,15
2022-02-13,16:00:00,16,8
2022-02-13,17:00:00,8,16
2022-02-13,18:00:00,4,5
2022-02-13,19:00:00,5,0
2022-02-13,20:00:00,5,0
2022-02-13,21:00:00,0,2
2022-02-13,22:00:00,2,1
2022-02-13,23:00:00,5,0
2022-02-14,00:00:00,3,0
2022-02-14,01:00:00,1,0
2022-02-14,02:00:00,0,0
2022-02-14,03:00:00,0,2
2022-02-14,04:00:00,1,2
2022-02-14,05:00:00,2,6
2022-02-14,06:00:00,7,12
2022-02-14,07:00:00,94,37
2022-02-14,08:00:00,24,66
2022-02-14,09:00:00,31,45
2022-02-14,10:00:00,45,41
2022-02-14,11:00:00,47,37
2022-02-14,12:00:00,68,68
2022-02-14,13:00:00,28,41
2022-02-14,14:00:00,52,94
2022-02-14,15:00:00,59,55
2022-02-14,16:00:00,64,27
2022-02-14,17:00:00,41,27
2022-02-14,18:00:00,16,24
2022-02-14,19:00:00,24,15
2022-02-14,20:00:00,14,9
2022-02-14,21:00:00,7,4
2022-02-14,22:00:00,2,1
2022-02-14,23:00:00,4,1
2022-02-15,00:00:00,0,0
2022-02-15,01:00:00,0,0
2022-02-15,02:00:00,1,1
2022-02-15,03:00:00,0,3
2022-02-15,04:00:00,0,1
2022-02-15,05:00:00,3,5
2022-02-15,06:00:00,8,12
2022-02-15,07:00:00,73,36
2022-02-15,08:00:00,21,54
2022-02-15,09:00:00,22,36
2022-02-15,10:00:00,32,40
2022-02-15,11:00:00,24,22
2022-02-15,12:00:00,31,25
2022-02-15,13:00:00,19,24
2022-02-15,14:00:00,25,70
2022-02-15,15:00:00,42,36
2022-02-15,16:00:00,30,18
2022-02-15,17:00:00,47,18
2022-02-15,18:00:00,20,23
2022-02-15,19:00:00,13,12
2022-02-15,20:00:00,16,11
2022-02-15,21:00:00,9,5
2022-02-15,22:00:00,14,4
2022-02-15,23:00:00,9,0
2022-02-16,00:00:00,1,2
2022-02-16,01:00:00,1,6
2022-02-16,02:00:00,1,0
2022-02-16,03:00:00,0,1
2022-02-16,04:00:00,1,0
2022-02-16,05:00:00,3,8
2022-02-16,06:00:00,9,13
2022-02-16,07:00:00,93,35
2022-02-16,08:00:00,26,56
2022-02-16,09:00:00,34,61
2022-02-16,10:00:00,64,48
2022-02-16,11:00:00,46,42
2022-02-16,12:00:00,43,50
2022-02-16,13:00:00,37,32
2022-02-16,14:00:00,36,86
2022-02-16,15:00:00,51,30
2022-02-16,16:00:00,31,22
2022-02-16,17:00:00,30,24
2022-02-16,18:00:00,18,17
2022-02-16,19:00:00,14,11
2022-02-16,20:00:00,10,5
2022-02-16,21:00:00,5,8
2022-02-16,22:00:00,7,5
2022-02-16,23:00:00,10,6
2022-02-17,00:00:00,7,0
2022-02-17,01:00:00,3,5
2022-02-17,02:00:00,0,0
2022-02-17,03:00:00,1,1
2022-02-17,04:00:00,0,0
2022-02-17,05:00:00,3,8
2022-02-17,06:00:00,12,14
2022-02-17,07:00:00,85,37
2022-02-17,08:00:00,25,56
2022-02-17,09:00:00,24,37
2022-02-17,10:00:00,26,29
2022-02-17,11:00:00,33,37
2022-02-17,12:00:00,46,56
2022-02-17,13:00:00,33,45
2022-02-17,14:00:00,45,88
2022-02-17,15:00:00,46,41
2022-02-17,16:00:00,53,33
2022-02-17,17:00:00,39,37
2022-02-17,18:00:00,28,25
2022-02-17,19:00:00,23,18
2022-02-17,20:00:00,14,10
2022-02-17,21:00:00,11,20
2022-02-17,22:00:00,6,2
2022-02-17,23:00:00,9,1
2022-02-18,00:00:00,2,2
2022-02-18,01:00:00,7,2
2022-02-18,02:00:00,11,1
2022-02-18,03:00:00,2,1
2022-02-18,04:00:00,0,3
2022-02-18,05:00:00,5,4
2022-02-18,06:00:00,3,10
2022-02-18,07:00:00,11,14
2022-02-18,08:00:00,14,19
2022-02-18,09:00:00,13,15
2022-02-18,10:00:00,16,12
2022-02-18,11:00:00,14,7
2022-02-18,12:00:00,10,5
2022-02-18,13:00:00,8,10
2022-02-18,14:00:00,12,10
2022-02-18,15:00:00,18,9
2022-02-18,16:00:00,17,19
2022-02-18,17:00:00,10,13
2022-02-18,18:00:00,8,5
2022-02-18,19:00:00,5,5
2022-02-18,20:00:00,7,2
2022-02-18,21:00:00,5,4
2022-02-18,22:00:00,2,2
2022-02-18,23:00:00,3,1
2022-02-19,00:00:00,3,0
2022-02-19,01:00:00,0,0
2022-02-19,02:00:00,5,4
2022-02-19,03:00:00,0,1
2022-02-19,04:00:00,1,1
2022-02-19,05:00:00,1,1
2022-02-19,06:00:00,7,15
2022-02-19,07:00:00,16,14
2022-02-19,08:00:00,28,43
2022-02-19,09:00:00,38,61
2022-02-19,10:00:00,32,50
2022-02-19,11:00:00,47,40
2022-02-19,12:00:00,18,22
2022-02-19,13:00:00,16,14
2022-02-19,14:00:00,10,13
2022-02-19,15:00:00,21,31
2022-02-19,16:00:00,20,27
2022-02-19,17:00:00,19,30
2022-02-19,18:00:00,21,23
2022-02-19,19:00:00,8,13
2022-02-19,20:00:00,10,8
2022-02-19,21:00:00,7,4
2022-02-19,22:00:00,9,6
2022-02-19,23:00:00,12,3
2022-02-20,00:00:00,3,1
2022-02-20,01:00:00,7,0
2022-02-20,02:00:00,3,2
2022-02-20,03:00:00,3,1
2022-02-20,04:00:00,0,2
2022-02-20,05:00:00,0,3
2022-02-20,06:00:00,7,12
2022-02-20,07:00:00,13,7
2022-02-20,08:00:00,23,24
2022-02-20,09:00:00,33,30
2022-02-20,10:00:00,26,49
2022-02-20,11:00:00,31,33
2022-02-20,12:00:00,29,25
2022-02-20,13:00:00,23,24
2022-02-20,14:00:00,29,26
2022-02-20,15:00:00,15,16
2022-02-20,16:00:00,10,11
2022-02-20,17:00:00,12,8
2022-02-20,18:00:00,7,6
2022-02-20,19:00:00,1,3
2022-02-20,20:00:00,6,2
2022-02-20,21:00:00,3,5
2022-02-20,22:00:00,6,2
2022-02-20,23:00:00,2,0
2022-02-21,00:00:00,0,1
2022-02-21,01:00:00,0,0
2022-02-21,02:00:00,0,0
2022-02-21,03:00:00,0,1
2022-02-21,04:00:00,1,3
2022-02-21,05:00:00,4,4
2022-02-21,06:00:00,10,11
2022-02-21,07:00:00,18,16
2022-02-21,08:00:00,9,32
2022-02-21,09:00:00,16,22
2022-02-21,10:00:00,18,24
2022-02-21,11:00:00,17,20
2022-02-21,12:00:00,15,9
2022-02-21,13:00:00,24,20
2022-02-21,14:00:00,14,44
2022-02-21,15:00:00,32,21
2022-02-21,16:00:00,31,22
2022-02-21,17:00:00,28,18
2022-02-21,18:00:00,24,17
2022-02-21,19:00:00,12,17
2022-02-21,20:00:00,18,3
2022-02-21,21:00:00,2,2
2022-02-21,22:00:00,5,7
2022-02-21,23:00:00,5,1
2022-02-22,00:00:00,1,1
2022-02-22,01:00:00,1,0
2022-02-22,02:00:00,1,1
2022-02-22,03:00:00,0,2
2022-02-22,04:00:00,0,1
2022-02-22,05:00:00,4,5
2022-02-22,06:00:00,10,17
2022-02-22,07:00:00,22,22
2022-02-22,08:00:00,18,33
2022-02-22,09:00:00,24,36
2022-02-22,10:00:00,36,35
2022-02-22,11:00:00,28,37
2022-02-22,12:00:00,26,28
2022-02-22,13:00:00,26,21
2022-02-22,14:00:00,51,35
2022-02-22,15:00:00,29,46
2022-02-22,16:00:00,44,26
2022-02-22,17:00:00,42,27
2022-02-22,18:00:00,23,23
2022-02-22,19:00:00,19,13
2022-02-22,20:00:00,13,6
2022-02-22,21:00:00,9,8
2022-02-22,22:00:00,7,6
2022-02-22,23:00:00,2,5
2022-02-23,00:00:00,1,0
2022-02-23,01:00:00,0,0
2022-02-23,02:00:00,2,0
2022-02-23,03:00:00,0,1
2022-02-23,04:00:00,0,2
2022-02-23,05:00:00,2,5
2022-02-23,06:00:00,9,19
2022-02-23,07:00:00,18,18
2022-02-23,08:00:00,17,39
2022-02-23,09:00:00,31,43
2022-02-23,10:00:00,16,21
2022-02-23,11:00:00,21,31
2022-02-23,12:00:00,43,45
2022-02-23,13:00:00,31,30
2022-02-23,14:00:00,44,41
2022-02-23,15:00:00,45,28
2022-02-23,16:00:00,30,35
2022-02-23,17:00:00,27,22
2022-02-23,18:00:00,19,23
2022-02-23,19:00:00,16,8
2022-02-23,20:00:00,8,5
2022-02-23,21:00:00,18,7
2022-02-23,22:00:00,8,4
2022-02-23,23:00:00,8,3
2022-02-24,00:00:00,2,0
2022-02-24,01:00:00,6,0
2022-02-24,02:00:00,1,0
2022-02-24,03:00:00,0,2
2022-02-24,04:00:00,0,2
2022-02-24,05:00:00,3,5
2022-02-24,06:00:00,6,15
2022-02-24,07:00:00,21,20
2022-02-24,08:00:00,12,27
2022-02-24,09:00:00,10,6
2022-02-24,10:00:00,12,11
2022-02-24,11:00:00,11,16
2022-02-24,12:00:00,22,24
2022-02-24,13:00:00,24,28
2022-02-24,14:00:00,27,20
2022-02-24,15:00:00,22,25
2022-02-24,16:00:00,32,27
2022-02-24,17:00:00,29,24
2022-02-24,18:00:00,24,21
2022-02-24,19:00:00,14,6
2022-02-24,20:00:00,12,8
2022-02-24,21:00:00,10,4
2022-02-24,22:00:00,3,4
2022-02-24,23:00:00,5,1
2022-02-25,00:00:00,4,0
2022-02-25,01:00:00,5,0
2022-02-25,02:00:00,2,0
2022-02-25,03:00:00,2,5
2022-02-25,04:00:00,2,3
2022-02-25,05:00:00,5,5
2022-02-25,06:00:00,5,15
2022-02-25,07:00:00,24,22
2022-02-25,08:00:00,18,32
2022-02-25,09:00:00,20,28
2022-02-25,10:00:00,14,13
2022-02-25,11:00:00,0,0
2022-02-25,12:00:00,2,5
2022-02-25,13:00:00,11,7
2022-02-25,14:00:00,32,21
2022-02-25,15:00:00,49,33
2022-02-25,16:00:00,35,29
2022-02-25,17:00:00,21,31
2022-02-25,18:00:00,12,22
2022-02-25,19:00:00,23,12
2022-02-25,20:00:00,7,5
2022-02-25,21:00:00,15,4
2022-02-25,22:00:00,10,11
2022-02-25,23:00:00,4,4
2022-02-26,00:00:00,1,1
2022-02-26,01:00:00,1,1
2022-02-26,02:00:00,6,1
2022-02-26,03:00:00,1,3
2022-02-26,04:00:00,2,1
2022-02-26,05:00:00,2,4
2022-02-26,06:00:00,3,7
2022-02-26,07:00:00,12,16
2022-02-26,08:00:00,24,30
2022-02-26,09:00:00,39,45
2022-02-26,10:00:00,11,11
2022-02-26,11:00:00,3,2
2022-02-26,12:00:00,21,23
2022-02-26,13:00:00,20,31
2022-02-26,14:00:00,26,35
2022-02-26,15:00:00,47,50
2022-02-26,16:00:00,39,32
2022-02-26,17:00:00,23,35
2022-02-26,18:00:00,20,17
2022-02-26,19:00:00,13,13
2022-02-26,20:00:00,9,10
2022-02-26,21:00:00,7,6
2022-02-26,22:00:00,6,7
2022-02-26,23:00:00,11,4
2022-02-27,00:00:00,5,1
2022-02-27,01:00:00,10,1
2022-02-27,02:00:00,3,0
2022-02-27,03:00:00,0,0
2022-02-27,04:00:00,2,1
2022-02-27,05:00:00,1,4
2022-02-27,06:00:00,6,13
2022-02-27,07:00:00,19,15
2022-02-27,08:00:00,29,25
2022-02-27,09:00:00,34,27
2022-02-27,10:00:00,1,9
2022-02-27,11:00:00,0,0
2022-02-27,12:00:00,1,1
2022-02-27,13:00:00,4,0
2022-02-27,14:00:00,39,29
2022-02-27,15:00:00,31,32
2022-02-27,16:00:00,32,34
2022-02-27,17:00:00,22,18
2022-02-27,18:00:00,6,6
2022-02-27,19:00:00,10,8
2022-02-27,20:00:00,9,7
2022-02-27,21:00:00,6,3
2022-02-27,22:00:00,5,3
2022-02-27,23:00:00,4,0
2022-02-28,00:00:00,3,3
2022-02-28,01:00:00,1,0
2022-02-28,02:00:00,1,0
2022-02-28,03:00:00,0,1
2022-02-28,04:00:00,0,2
2022-02-28,05:00:00,3,7
2022-02-28,06:00:00,11,14
2022-02-28,07:00:00,94,38
2022-02-28,08:00:00,17,52
2022-02-28,09:00:00,23,33
2022-02-28,10:00:00,40,44
2022-02-28,11:00:00,50,40
2022-02-28,12:00:00,73,77
2022-02-28,13:00:00,37,46
2022-02-28,14:00:00,33,88
2022-02-28,15:00:00,41,33
2022-02-28,16:00:00,60,36
2022-02-28,17:00:00,38,25
2022-02-28,18:00:00,22,17
2022-02-28,19:00:00,7,11
2022-02-28,20:00:00,8,8
2022-02-28,21:00:00,5,8
2022-02-28,22:00:00,3,4
2022-02-28,23:00:00,3,1
